This is the latest recevied weather packets stored in our database for station/object W8RSN-13. If no packets are shown the sender has not sent any weather packets the latest 10 day(s).
| Time | Temp. | Humidity | Pressure | Rain* | Wind** | Luminosity | Snow |
|---|---|---|---|---|---|---|---|
| 1787587413 | 30° C | 37% | 1017.3 hPa | - | - | - | - |
| 1787587112 | 30.56° C | 38% | 1017.3 hPa | - | - | - | - |
| 1787586811 | 30° C | 38% | 1017.1 hPa | - | - | - | - |
| 1787586511 | 29.44° C | 40% | 1017.4 hPa | - | - | - | - |
| 1787586210 | 28.89° C | 41% | 1017.3 hPa | - | - | - | - |
| 1787585909 | 28.33° C | 42% | 1017.1 hPa | - | - | - | - |
| 1787585608 | 27.78° C | 42% | 1017.3 hPa | - | - | - | - |
| 1787585307 | 27.78° C | 43% | 1017.4 hPa | - | - | - | - |
| 1787585006 | 27.78° C | 43% | 1017.4 hPa | - | - | - | - |
| 1787584705 | 26.67° C | 45% | 1017.3 hPa | - | - | - | - |
| 1787584405 | 26.11° C | 47% | 1017.2 hPa | - | - | - | - |
| 1787584103 | 26.11° C | 47% | 1017.2 hPa | - | - | - | - |
| 1787583802 | 26.11° C | 48% | 1017 hPa | - | - | - | - |
| 1787583501 | 25.56° C | 48% | 1017.1 hPa | - | - | - | - |
| 1787583201 | 25.56° C | 48% | 1017.2 hPa | - | - | - | - |
| 1787582900 | 25.56° C | 48% | 1017.1 hPa | - | - | - | - |
| 1787582599 | 25.56° C | 47% | 1016.8 hPa | - | - | - | - |
| 1787582298 | 26.11° C | 45% | 1017.1 hPa | - | - | - | - |
| 1787581997 | 25.56° C | 47% | 1017.1 hPa | - | - | - | - |
| 1787581696 | 25° C | 47% | 1017.3 hPa | - | - | - | - |
| 1787581415 | 24.44° C | 49% | 1016.7 hPa | - | - | - | - |
| 1787581114 | 23.89° C | 50% | 1016.6 hPa | - | - | - | - |
| 1787580813 | 23.89° C | 49% | 1016.8 hPa | - | - | - | - |
| 1787580512 | 23.89° C | 47% | 1016.7 hPa | - | - | - | - |
| 1787580211 | 23.33° C | 46% | 1016.6 hPa | - | - | - | - |
* Rain since midnight (hover to see other rain measurements)
** Current wind speed in m/s (hover to see current wind gust speed)